Regional Weather Roundup
Issued by NWS

Home | Current Version | Previous Version | Graphics & Text | Print | Product List | Glossary On
Versions: 1 2 3 4 5 6 7 8 9 10 11 12 13 14 15 16 17 18 19 20 21 22 23 24 25 26 27 28 29 30 31 32 33 34 35 36 37 38 39 40 41 42 43 44 45 46 47 48 49 50
650
ASUS45 KBOU 211307
RWRCO

WEATHER ROUNDUP FOR COLORADO
NATIONAL WEATHER SERVICE DENVER/BOULDER CO
700 AM MDT MON AUG 21 2017

NOTE: "FAIR" INDICATES FEW OR NO CLOUDS BELOW 12000 FEET WITH NO
SIGNIFICANT WEATHER AND/OR OBSTRUCTIONS TO VISIBILITY.

COZ001>005-013-030-031-211400-
...NORTHWEST COLORADO...

CITY           SKY/WX    TMP DP  RH WIND       PRES   REMARKS
CRAIG          FAIR      46  40  79 CALM      30.26R
HAYDEN         FAIR      52  39  61 E10       30.28R
MEEKER         FAIR      53  42  66 SE3       30.26R
RABBIT EARS PA FAIR      52  34  50 W10       30.53S
STEAMBOAT SPGS FAIR      43  39  83 CALM      30.29F
WALDEN         FAIR      39  34  81 SE6       30.38S
$$

COZ006>008-011-211400-
...WEST CENTRAL VALLEYS...

CITY           SKY/WX    TMP DP  RH WIND       PRES   REMARKS
GRAND JUNCTION FAIR      64  39  39 E9        30.13R
MONTROSE       FAIR      59  43  55 S6        30.22R
EAGLE          FAIR      50  37  61 E6        30.32R
RIFLE          FAIR      57  39  51 CALM      30.20R
DELTA          FAIR      61  39  45 E5        30.17R
NUCLA          FAIR      59  39  47 E3        30.26S
$$

COZ017>023-064>068-211400-
...SOUTHWEST COLORADO...

CITY           SKY/WX    TMP DP  RH WIND       PRES   REMARKS
DURANGO        MOCLDY    53  44  71 N5        30.29R
CORTEZ         FAIR      54  50  86 CALM      30.24R
PAGOSA SPRINGS FAIR      51  42  71 CALM      30.34S THUNDER
TELLURIDE      FAIR      50  39  65 SE6       30.45S
WOLF CREEK PAS CLOUDY    45  34  65 CALM      30.64S
$$

COZ009-010-012-014-032>034-037-058>063-211400-
...CENTRAL COLORADO...

CITY           SKY/WX    TMP DP  RH WIND       PRES   REMARKS
ASPEN          FAIR      48  39  71 S6        30.34R
BUENA VISTA    FAIR      53  40  60 N7        30.36R
COPPER MTN     FAIR      54  32  43 NW7       30.64R
BERTHOUD PASS  FAIR      41  36  81 NW17      30.66R
COTTONWOOD PAS MOCLDY    57  32  38 W10       30.47S
GUNNISON       FAIR      48  41  76 N3        30.37R
KREMMLING      FAIR      45  37  76 CALM      30.38R
LEADVILLE      FAIR      40  34  79 NE5       30.47S
MONARCH PASS   MOCLDY    45  34  65 W16       30.72R
SALIDA         FAIR      57  43  59 W6        30.40R
SUNLIGHT       FAIR      50  32  50 SW7       30.57S
WILKERSON PASS FAIR      52  30  43 N7        30.58S
$$

COZ069>075-211400-
...SAN LUIS VALLEY/SANGRE DE CRISTO MOUNTAINS...

CITY           SKY/WX    TMP DP  RH WIND       PRES   REMARKS
ALAMOSA        FAIR      48  43  82 CALM      30.32S
DEL NORTE      FAIR      53  41  64 W9        30.35S
LA VETA PASS   NOT AVBL
SAGUACHE       FAIR      52  41  66 NW8       30.34S
$$

COZ035-036-038>040-211400-
...NORTHERN COLORADO FRONT RANGE...

CITY           SKY/WX    TMP DP  RH WIND       PRES   REMARKS
DENVER INTL AP MOCLDY    65  45  48 W7        30.12R
DMNS CITY PARK   N/A     65  49  55 SW2G8     30.12S
AURORA         PTCLDY    62  46  54 SW6       30.14R
FRONT RANGE AP FAIR      64  46  52 NW6       30.13R
ERIE MUNI ARPT FAIR      56  46  68 CALM      30.16R
BOULDER MUN AP FAIR      61  43  51 SW5       30.11S
CENTENNIAL     FAIR      62  44  51 CALM      30.15R
BROOMFIELD     MOCLDY    64  43  45 CALM      30.15R
FORT COLLINS   FAIR      58  48  69 CALM      30.10R
LONGMONT       FAIR      57  46  66 NW3       30.12R HAZE
$$

COZ041-046-047-076>085-087-088-211400-
...PIKES PEAK/PALMER DIVIDE AND SOUTHERN FOOTHILLS...

CITY           SKY/WX    TMP DP  RH WIND       PRES   REMARKS
COLO. SPRINGS  FAIR      64  45  49 CALM      30.17S
A. F. ACADEMY  FAIR      58  44  57 N8        30.19S
SCHRIEVER AFB  FAIR      66  42  41 NW8       30.17R
CHEYENNE MTN   FAIR      70  38  31 SW6       30.17R
ELLICOTT       NOT AVBL
FALCON         FAIR      62  40  44 W12       30.23R
FORT CARSON    FAIR      62  41  46 W3        30.14R
LIMON          FAIR      53  48  83 N8        30.11S
MONUMENT HILL  FAIR      55  43  62 SW8       30.25S
CANON CITY     CLEAR     66  46  48 W15       30.13R
WALSENBURG     FAIR      66  43  42 SW9       30.17S
TRINIDAD       FAIR      58  49  72 W17G25    30.16R
$$

COZ042>045-048>051-090-091-211400-
...NORTHEAST COLORADO...

CITY           SKY/WX    TMP DP  RH WIND       PRES   REMARKS
GREELEY ARPT   FAIR      57  54  89 NW7       30.08R
AKRON          FAIR      64  47  53 W8        30.05R
BURLINGTON     FAIR      62  59  90 SW6       30.03S
WRAY           NOT AVBL
YUMA           FAIR      59  43  55 W9        30.01R
STERLING       CLOUDY    63  63 100 CALM      30.00F FOG
HOLYOKE        CLOUDY    61  59  94 CALM      29.99S FOG
FORT MORGAN    FAIR      60  55  84 CALM      30.05R
$$

COZ086-089-092>099-211400-
...SOUTHEAST COLORADO...

CITY           SKY/WX    TMP DP  RH WIND       PRES   REMARKS
PUEBLO         FAIR      60  47  61 CALM      30.07S
LA JUNTA       FAIR      63  52  67 CALM      30.05R
LAMAR          FAIR      66  57  72 CALM      30.00S
SPRINGFIELD      N/A     62  59  90 S15       30.09S
$$




USA.gov is the U.S. government's official web portal to all federal, state and local government web resources and services.